Regional Weather Roundup
Issued by NWS

Home | Current Version | Previous Version | Graphics & Text | Print | Product List | Glossary On
Versions: 1 2 3 4 5 6 7 8 9 10 11 12 13 14 15 16 17 18 19 20 21 22 23 24 25 26 27 28 29 30 31 32 33 34 35 36 37 38 39 40 41 42 43 44 45 46 47 48 49 50
000
ASUS45 KCYS 131310
RWRWY

WYOMING REGIONAL WEATHER ROUNDUP
NATIONAL WEATHER SERVICE CHEYENNE WY
600 AM MST SAT FEB 13 2016

NOTE:  "FAIR" INDICATES FEW OR NO CLOUDS BELOW 12,000 FEET
WITH NO SIGNIFICANT WEATHER AND/OR OBSTRUCTIONS TO VISIBILITY.

WYZ001-131400-
YELLOWSTONE NATIONAL PARK

CITY           SKY/WX    TMP DP  RH WIND       PRES   REMARKS
LK YELLOWSTONE   N/A     27  23  85 CALM      30.12F
W YELLOWSTONE  NOT AVBL

$$
WYZ002>013-054>058-071-098>099-131400-
NORTHERN WYOMING

CITY           SKY/WX    TMP DP  RH WIND       PRES   REMARKS
JACKSON        MOCLDY    28  23  80 CALM      30.13F
CODY           FAIR      48  28  46 W12G30    29.94F
GREYBULL       MOCLDY    32  28  85 VRB3      29.98F
WORLAND        FAIR      25  23  92 CALM      30.01R
SHERIDAN       CLOUDY    32  29  88 CALM      29.94R
BUFFALO        CLOUDY    45  25  45 W10       29.94S
GILLETTE       CLOUDY    32  28  85 SE14      29.94F WCI  22
HULETT         FAIR      32  28  86 W5        29.96F WCI  27
NEWCASTLE      FAIR      27  27 100 SE3       30.03F

$$
WYZ014>020-022>026-101>103-131400-
CENTRAL WYOMING

CITY           SKY/WX    TMP DP  RH WIND       PRES   REMARKS
BIG PINEY      FAIR      19  15  84 NE5       30.18S WCI  12
PINEDALE         N/A    N/A N/A N/A MISG        N/A
DUBOIS         CLOUDY    36  23  60 NW8       30.10F WCI  29
LANDER         FAIR      34  18  52 VRB3      30.04S
RIVERTON       FAIR      31  24  75 CALM      30.06R
CASPER         FAIR      39  22  50 SW20      30.02F WCI  29
DOUGLAS        FOG       28  27  96 S5        30.03F VSB 1/2 WCI  23

$$
WYZ021-027>030-104>119-131400-
SOUTHERN WYOMING

CITY           SKY/WX    TMP DP  RH WIND       PRES   REMARKS
EVANSTON       FAIR      27  12  53 SW14      30.21S WCI  16
FORT BRIDGER   SUNNY     36  14  41 SW17      30.21F WCI  25
ROCK SPRINGS   FAIR      32  18  56 SW12      30.17S WCI  23
DIXON          FAIR      17  12  81 CALM      30.24S
RAWLINS        FAIR      36  20  52 SW18      30.14F WCI  26
SARATOGA       FAIR      36  19  51 SW12      30.17S WCI  27
LARAMIE        FAIR      39  17  41 SW17      30.11F WCI  30
CHEYENNE       FAIR      41  21  44 W9        30.06F
TORRINGTON     FOG       25  24  96 CALM      30.05F VSB 1/4
PINE BLUFFS    FOG       28  28 100 S6        30.08F VSB 1/2 WCI  22

$$



USA.gov is the U.S. government's official web portal to all federal, state and local government web resources and services.